Location: B?ezina
(49.8085°N, 13.6013°E)
Time: 06:24:45
(UTC+00:00)

Cosmos 1867 - Pass Details

Date: 19 May 2025
Orbit: 775 x 798 km, 65.0° (Epoch: 14 June)

Event Time Altitude Azimuth Distance (km) Brightness Sun altitude
Rises 19:47:47 0° 320° (NW) 3,314 9.2 -8.1°
Reaches altitude 10° 19:50:15 10° 324° (NW) 2,380 7.7 -8.4°
Maximum altitude 19:55:42 66° 46° (NE) 872 3.8 -9.0°
Enters shadow 20:00:46 12° 128° (SE) 2,230 5.2 -9.5°
